SL-12 R/B(AUX MOTOR), 33385

Orbit data source: Space-Track

SL-12 R/B(AUX MOTOR), 33385 is space debris in HEO originally from a launch on Thu, 25 Sep 2008 UTC launched from the Tyuratam Missile And Space Complex (TTMTR). Debris objects in space refer to the collection of defunct objects orbiting the Earth. Examples of debris include non-operational satellites, rocket bodies, and fragments generated from explosions, collisions, or faulty payload assembly.

Loading next visibility...
Identifier
33385, 2008-046H
Orbit
HEO
Country
Flag of CISCIS
Related business
Manufacturer
RKKE
Mission
Spacecraft
Bus & Motor
SOZ, Unknown motor
Mass
56 kg wet, 56 kg dry
Launch date (UTC)
2008-09-25 (17 years ago)
Launch vehicle
Unknown
Launch site
Tyuratam Missile And Space Complex (TTMTR)
Object type
Payload
Rocket body
Debris
Shape & HBR
Cyl, 0.6 m
Radar Cross Section
0.660 m², Medium (>0.1 m² and < 1m²)

Expand to show TLE details & history
Last TLE update: 12 hours ago

TLE from 12 hours ago
0 SL-12 R/B(AUX MOTOR)
1 33385U 08046H   26062.18937422  .00000054  00000-0  61229-3 0  9994
2 33385  65.1835  91.9974 5522629 275.8198  26.9461  4.21906608181017
Epoch: 2026-03-03T04:32Z
TLE epoch observation values (Epoch: 2026-03-03T04:32:41.932Z)
Latitude
-0.00007°
Longitude
-137.14319°
Altitude
4,276.344 km
Speed
7.085 km/s
True Right ascension
06h 08m 00s
True Declination
0° 00' 00"
Sunlit
Object was in daylight at epoch
Visualization orbit readout
Latitude
Unknown
Longitude
Unknown
Altitude
Unknown
Speed
Unknown
Apparent Right ascension
Unknown
Apparent Declination
Unknown
Sunlit
N/A
Visualization observer readout
Local Sidereal Time
20:44:28
Azimuth
Unknown
Elevation
Unknown
Doppler factor
Unknown
Orbital elements
Apogee altitude
18,732.637 km
Perigee altitude
864.853 km
Semi-major axis
16,176.882 km
Eccentricity
0.55226
Inclination
65.1835°
RAAN
91.9974°
Arg. of periapsis
275.8198°
True anomaly
84.2587°
Mean anomaly
26.9461°
Eccentric anomaly
51.8189°
Mean motion
1.05487 °/min
Orbital period
341.27 mins
BSTAR
0.00061229
Loading maneuver chart data...
Computing Atmospheric mass density...
Loading historical data...
Loading historical data...
Loading historical data...
Loading historical data...
Loading historical data...
Loading historical data...
Loading historical data...

Documentation

Showing up to 5 results
|